| time (UTC) | temp F | wind direction | speed knots | gust knots | rain 1hr in | rain 24hr in | rain mn in | humidity % | barometer mb |
| 20260906163848 | 71 | 110 | 7.0 | 11.3 | 0.00 | 0.00 | 0.00 | 1020.3 | |
| 20260906163208 | 70 | 100 | 7.0 | 12.2 | 0.00 | 0.00 | 0.00 | 1020.4 | |
| 20260906162528 | 70 | 91 | 7.8 | 12.2 | 0.00 | 0.00 | 0.00 | 1020.3 | |
| 20260906161848 | 70 | 89 | 7.8 | 13.9 | 0.00 | 0.00 | 0.00 | 1020.3 | |
| 20260906161208 | 71 | 84 | 6.1 | 10.4 | 0.00 | 0.00 | 0.00 | 1020.3 | |
| 20260906160528 | 71 | 102 | 6.1 | 12.2 | 0.00 | 0.00 | 0.00 | 1020.5 | |
| 20260906155848 | 71 | 84 | 6.1 | 11.3 | 0.00 | 0.00 | 0.00 | 1020.5 | |
| 20260906155208 | 71 | 90 | 7.8 | 12.2 | 0.00 | 0.00 | 0.00 | 1020.3 | |
| 20260906154528 | 71 | 85 | 7.0 | 12.2 | 0.00 | 0.00 | 0.00 | 1020.4 | |
| 20260906153848 | 71 | 72 | 6.1 | 12.2 | 0.00 | 0.00 | 0.00 | 1020.5 | |
| 20260906153422 | 71 | 92 | 6.1 | 12.2 | 0.00 | 0.00 | 0.00 | 1020.5 | |
| 20260906152528 | 71 | 90 | 6.1 | 11.3 | 0.00 | 0.00 | 0.00 | 1020.5 | |
| 20260906152058 | 72 | 96 | 4.3 | 11.3 | 0.00 | 0.00 | 0.00 | 1020.6 | |
| 20260906151208 | 71 | 92 | 6.1 | 11.3 | 0.00 | 0.00 | 0.00 | 1020.1 | |
| 20260906150528 | 72 | 117 | 5.2 | 11.3 | 0.00 | 0.00 | 0.00 | 1020.3 | |
| 20260906145848 | 72 | 118 | 4.3 | 9.6 | 0.00 | 0.00 | 0.00 | 1020.3 | |
| 20260906145208 | 72 | 115 | 5.2 | 8.7 | 0.00 | 0.00 | 0.00 | 1020.3 | |
| 20260906144528 | 72 | 95 | 5.2 | 9.6 | 0.00 | 0.00 | 0.00 | 1020.3 | |
| 20260906143848 | 72 | 87 | 4.3 | 10.4 | 0.00 | 0.00 | 0.00 | 1020.3 | |
| 20260906143208 | 72 | 84 | 5.2 | 10.4 | 0.00 | 0.00 | 0.00 | 1020.2 | |
| 20260906142528 | 72 | 90 | 5.2 | 8.7 | 0.00 | 0.00 | 0.00 | 1020.3 | |
| 20260906142059 | 71 | 81 | 5.2 | 7.8 | 0.00 | 0.00 | 0.00 | 1020.3 | |
| 20260906141208 | 71 | 109 | 6.1 | 10.4 | 0.00 | 0.00 | 0.00 | 1020.1 | |
| 20260906140529 | 71 | 97 | 5.2 | 8.7 | 0.00 | 0.00 | 0.00 | 1020.1 | |
| 20260906135848 | 71 | 114 | 6.1 | 8.7 | 0.00 | 0.00 | 0.00 | 1019.9 | |
| 20260906135208 | 71 | 99 | 5.2 | 8.7 | 0.00 | 0.00 | 0.00 | 1020.0 | |
| 20260906134528 | 71 | 119 | 5.2 | 7.8 | 0.00 | 0.00 | 0.00 | 1020.0 | |
| 20260906133848 | 71 | 117 | 5.2 | 7.8 | 0.00 | 0.00 | 0.00 | 1020.0 | |
| 20260906133208 | 71 | 98 | 3.5 | 7.0 | 0.00 | 0.00 | 0.00 | 1019.9 | |
| 20260906132528 | 71 | 104 | 5.2 | 7.0 | 0.00 | 0.00 | 0.00 | 1019.9 | |
| 20260906131848 | 71 | 111 | 3.5 | 6.1 | 0.00 | 0.00 | 0.00 | 1020.1 | |
| 20260906131208 | 70 | 117 | 4.3 | 7.0 | 0.00 | 0.00 | 0.00 | 1019.9 | |
| 20260906130741 | 70 | 97 | 4.3 | 7.0 | 0.00 | 0.00 | 0.00 | 1019.9 | |
| 20260906125848 | 71 | 97 | 4.3 | 7.0 | 0.00 | 0.00 | 0.00 | 1019.8 | |
| 20260906125208 | 71 | 117 | 2.6 | 5.2 | 0.00 | 0.00 | 0.00 | 1019.8 | |
| 20260906124528 | 70 | 119 | 3.5 | 6.1 | 0.00 | 0.00 | 0.00 | 1019.6 | |
| 20260906123848 | 70 | 122 | 4.3 | 7.0 | 0.00 | 0.00 | 0.00 | 1019.5 | |
| 20260906123208 | 70 | 120 | 4.3 | 7.0 | 0.00 | 0.00 | 0.00 | 1019.5 | |
| 20260906122528 | 69 | 112 | 4.3 | 7.8 | 0.00 | 0.00 | 0.00 | 1019.4 | |
| 20260906121848 | 69 | 116 | 5.2 | 7.8 | 0.00 | 0.00 | 0.00 | 1019.3 | |
| 20260906121421 | 68 | 112 | 4.3 | 6.1 | 0.00 | 0.00 | 0.00 | 1019.3 | |
| 20260906120528 | 68 | 130 | 4.3 | 6.1 | 0.00 | 0.00 | 0.00 | 1019.3 | |
| 20260906115848 | 68 | 130 | 3.5 | 6.1 | 0.00 | 0.00 | 0.00 | 1019.0 | |
| 20260906115208 | 68 | 121 | 4.3 | 6.1 | 0.00 | 0.00 | 0.00 | 1018.9 | |
| 20260906114528 | 69 | 129 | 3.5 | 6.1 | 0.00 | 0.00 | 0.00 | 1018.8 | |
| 20260906113848 | 68 | 119 | 3.5 | 6.1 | 0.00 | 0.00 | 0.00 | 1018.8 | |
| 20260906113208 | 68 | 124 | 4.3 | 7.0 | 0.00 | 0.00 | 0.00 | 1018.6 | |
| 20260906112528 | 68 | 127 | 4.3 | 6.1 | 0.00 | 0.00 | 0.00 | 1018.6 | |
| 20260906111848 | 68 | 125 | 3.5 | 6.1 | 0.00 | 0.00 | 0.00 | 1018.5 | |
| 20260906111208 | 68 | 126 | 4.3 | 6.1 | 0.00 | 0.00 | 0.00 | 1018.5 | |
| 20260906110528 | 68 | 123 | 4.3 | 6.1 | 0.00 | 0.00 | 0.00 | 1018.4 | |
| 20260906105848 | 68 | 122 | 4.3 | 6.1 | 0.00 | 0.00 | 0.00 | 1018.4 | |
| 20260906105208 | 68 | 139 | 3.5 | 6.1 | 0.00 | 0.00 | 0.00 | 1018.4 | |
| 20260906104528 | 68 | 140 | 4.3 | 6.1 | 0.00 | 0.00 | 0.00 | 1018.3 | |
| 20260906103848 | 68 | 141 | 3.5 | 6.1 | 0.00 | 0.00 | 0.00 | 1018.3 | |
| 20260906103420 | 68 | 133 | 4.3 | 6.1 | 0.00 | 0.00 | 0.00 | 1018.2 | |
| 20260906102528 | 68 | 138 | 3.5 | 6.1 | 0.00 | 0.00 | 0.00 | 1018.2 | |
| 20260906102102 | 68 | 132 | 3.5 | 6.1 | 0.00 | 0.00 | 0.00 | 1018.3 | |
| 20260906101208 | 68 | 135 | 3.5 | 7.0 | 0.00 | 0.00 | 0.00 | 1018.3 | |
| 20260906100528 | 68 | 133 | 4.3 | 7.0 | 0.00 | 0.00 | 0.00 | 1018.3 | |
| 20260906095848 | 68 | 122 | 5.2 | 7.0 | 0.00 | 0.00 | 0.00 | 1018.2 | |
| 20260906095208 | 67 | 134 | 3.5 | 5.2 | 0.00 | 0.00 | 0.00 | 1018.3 | |
| 20260906094528 | 67 | 143 | 2.6 | 6.1 | 0.00 | 0.00 | 0.00 | 1018.2 | |
| 20260906093848 | 67 | 127 | 3.5 | 5.2 | 0.00 | 0.00 | 0.00 | 1018.2 | |
| 20260906093208 | 66 | 108 | 2.6 | 5.2 | 0.00 | 0.00 | 0.00 | 1018.1 | |
| 20260906092528 | 66 | 106 | 2.6 | 5.2 | 0.00 | 0.00 | 0.00 | 1018.1 | |
| 20260906091848 | 66 | 102 | 1.7 | 2.6 | 0.00 | 0.00 | 0.00 | 1017.9 | |
| 20260906091418 | 66 | 57 | 0.9 | 3.5 | 0.00 | 0.00 | 0.00 | 1017.9 | |
| 20260906090739 | 66 | 79 | 1.7 | 3.5 | 0.00 | 0.00 | 0.00 | 1017.9 | |
| 20260906085848 | 65 | 92 | 0.9 | 1.7 | 0.00 | 0.00 | 0.00 | 1017.7 | |
| 20260906085208 | 64 | 65 | 0.9 | 1.7 | 0.00 | 0.00 | 0.00 | 1017.7 | |
| 20260906084528 | 64 | 243 | 0.9 | 2.6 | 0.00 | 0.00 | 0.00 | 1017.9 | |
| 20260906083848 | 65 | 355 | 0.9 | 4.3 | 0.00 | 0.00 | 0.00 | 1017.8 | |
| 20260906083208 | 65 | 340 | 1.7 | 4.3 | 0.00 | 0.00 | 0.00 | 1017.9 | |
| 20260906082528 | 65 | 314 | 2.6 | 4.3 | 0.00 | 0.00 | 0.00 | 1017.9 | |
| 20260906081848 | 65 | 321 | 2.6 | 4.3 | 0.00 | 0.00 | 0.00 | 1017.8 | |
| 20260906081208 | 65 | 80 | 0.9 | 4.3 | 0.00 | 0.00 | 0.00 | 1017.8 | |
| 20260906080528 | 65 | 1 | 1.7 | 5.2 | 0.00 | 0.00 | 0.00 | 1017.7 | |
| 20260906075848 | 65 | 336 | 3.5 | 6.1 | 0.00 | 0.00 | 0.00 | 1017.7 | |
| 20260906075208 | 64 | 333 | 4.3 | 6.1 | 0.00 | 0.00 | 0.00 | 1017.6 | |
| 20260906074528 | 65 | 333 | 4.3 | 6.1 | 0.00 | 0.00 | 0.00 | 1017.5 | |
| 20260906073848 | 65 | 340 | 4.3 | 5.2 | 0.00 | 0.00 | 0.00 | 1017.4 | |
| 20260906073208 | 66 | 341 | 3.5 | 5.2 | 0.00 | 0.00 | 0.00 | 1017.4 | |
| 20260906072528 | 66 | 335 | 3.5 | 5.2 | 0.00 | 0.00 | 0.00 | 1017.3 | |
| 20260906071848 | 66 | 343 | 3.5 | 5.2 | 0.00 | 0.00 | 0.00 | 1017.1 | |
| 20260906071208 | 67 | 347 | 3.5 | 5.2 | 0.00 | 0.00 | 0.00 | 1017.2 | |
| 20260906070528 | 67 | 357 | 2.6 | 6.1 | 0.00 | 0.00 | 0.00 | 1017.2 | |
| 20260906070101 | 67 | 12 | 2.6 | 6.1 | 0.00 | 0.00 | 0.00 | 1017.2 | |
| 20260906065421 | 66 | 17 | 3.5 | 7.8 | 0.00 | 0.00 | 0.00 | 1017.2 | |
| 20260906064528 | 66 | 22 | 4.3 | 7.8 | 0.00 | 0.00 | 0.00 | 1017.2 | |
| 20260906064057 | 67 | 9 | 4.3 | 7.0 | 0.00 | 0.00 | 0.00 | 1017.2 | |
| 20260906063208 | 67 | 3 | 3.5 | 7.0 | 0.00 | 0.00 | 0.00 | 1017.2 | |
| 20260906062528 | 66 | 14 | 4.3 | 7.0 | 0.00 | 0.00 | 0.00 | 1017.2 | |
| 20260906061848 | 66 | 15 | 4.3 | 8.7 | 0.00 | 0.00 | 0.00 | 1017.2 | |
| 20260906061208 | 66 | 14 | 4.3 | 8.7 | 0.00 | 0.00 | 0.00 | 1017.2 | |
| 20260906060528 | 66 | 10 | 5.2 | 8.7 | 0.00 | 0.00 | 0.00 | 1017.2 | |
| 20260906055848 | 66 | 11 | 4.3 | 7.8 | 0.00 | 0.00 | 0.00 | 1017.1 | |
| 20260906055208 | 66 | 18 | 4.3 | 7.8 | 0.00 | 0.00 | 0.00 | 1017.0 | |
| 20260906054528 | 66 | 14 | 3.5 | 7.8 | 0.00 | 0.00 | 0.00 | 1017.0 | |
| 20260906053848 | 66 | 18 | 4.3 | 7.8 | 0.00 | 0.00 | 0.00 | 1017.0 | |
| 20260906053419 | 66 | 16 | 4.3 | 7.0 | 0.00 | 0.00 | 0.00 | 1016.9 | |
| 20260906052739 | 66 | 10 | 4.3 | 7.0 | 0.00 | 0.00 | 0.00 | 1016.9 | |
| 20260906051848 | 67 | 1 | 3.5 | 7.0 | 0.00 | 0.00 | 0.00 | 1016.9 | |
| 20260906051421 | 67 | 5 | 3.5 | 6.1 | 0.00 | 0.00 | 0.00 | 1016.9 | |
| 20260906050528 | 67 | 359 | 3.5 | 7.0 | 0.00 | 0.00 | 0.00 | 1017.0 | |
| 20260906045208 | 66 | 359 | 3.5 | 6.1 | 0.00 | 0.00 | 0.00 | 1017.0 | |
| 20260906044738 | 67 | 354 | 3.5 | 7.0 | 0.00 | 0.00 | 0.00 | 1017.1 | |
| 20260906043848 | 67 | 355 | 3.5 | 7.0 | 0.00 | 0.00 | 0.00 | 1017.0 | |
| 20260906043208 | 67 | 358 | 3.5 | 7.8 | 0.00 | 0.00 | 0.00 | 1017.0 | |
| 20260906042528 | 67 | 2 | 4.3 | 7.0 | 0.00 | 0.00 | 0.00 | 1017.0 | |
| 20260906041848 | 66 | 3 | 3.5 | 7.0 | 0.00 | 0.00 | 0.00 | 1016.9 | |
| 20260906041208 | 67 | 351 | 3.5 | 6.1 | 0.00 | 0.00 | 0.00 | 1016.9 | |
| 20260906040742 | 67 | 359 | 3.5 | 7.8 | 0.00 | 0.00 | 0.00 | 1016.7 | |
| 20260906035848 | 67 | 353 | 3.5 | 7.8 | 0.00 | 0.00 | 0.00 | 1016.7 | |
| 20260906035208 | 67 | 355 | 4.3 | 7.8 | 0.00 | 0.00 | 0.00 | 1016.8 | |
| 20260906034528 | 67 | 359 | 3.5 | 7.0 | 0.00 | 0.00 | 0.00 | 1016.8 | |
| 20260906034100 | 68 | 357 | 4.3 | 7.0 | 0.00 | 0.00 | 0.00 | 1016.8 | |
| 20260906033420 | 68 | 355 | 4.3 | 7.8 | 0.00 | 0.00 | 0.00 | 1016.8 | |
| 20260906032528 | 68 | 1 | 3.5 | 8.7 | 0.00 | 0.00 | 0.00 | 1016.8 | |
| 20260906031848 | 68 | 4 | 3.5 | 8.7 | 0.00 | 0.00 | 0.00 | 1016.7 | |
| 20260906031208 | 67 | 15 | 3.5 | 7.8 | 0.00 | 0.00 | 0.00 | 1016.7 | |
| 20260906030528 | 68 | 6 | 4.3 | 9.6 | 0.00 | 0.00 | 0.00 | 1016.8 | |
| 20260906025848 | 68 | 358 | 4.3 | 9.6 | 0.00 | 0.00 | 0.00 | 1016.8 | |
| 20260906025208 | 68 | 7 | 4.3 | 8.7 | 0.00 | 0.00 | 0.00 | 1016.7 | |
| 20260906024528 | 68 | 359 | 3.5 | 8.7 | 0.00 | 0.00 | 0.00 | 1016.8 | |
| 20260906023848 | 68 | 1 | 4.3 | 7.8 | 0.00 | 0.00 | 0.00 | 1016.8 | |
| 20260906023208 | 68 | 7 | 4.3 | 7.8 | 0.00 | 0.00 | 0.00 | 1016.8 | |
| 20260906022528 | 68 | 2 | 4.3 | 7.0 | 0.00 | 0.00 | 0.00 | 1016.8 | |
| 20260906021848 | 68 | 8 | 3.5 | 6.1 | 0.00 | 0.00 | 0.00 | 1016.7 | |
| 20260906021417 | 68 | 358 | 4.3 | 7.8 | 0.00 | 0.00 | 0.00 | 1016.8 | |
| 20260906020738 | 68 | 356 | 5.2 | 7.8 | 0.00 | 0.00 | 0.00 | 1016.8 | |
| 20260906015848 | 68 | 355 | 4.3 | 7.8 | 0.00 | 0.00 | 0.00 | 1016.9 | |
| 20260906015208 | 68 | 356 | 4.3 | 7.8 | 0.00 | 0.00 | 0.00 | 1016.8 | |
| 20260906014528 | 68 | 352 | 5.2 | 7.8 | 0.00 | 0.00 | 0.00 | 1016.7 | |
| 20260906011208 | 68 | 13 | 5.2 | 8.7 | 0.00 | 0.00 | 0.00 | 1016.5 | |
| 20260906010528 | 68 | 12 | 5.2 | 10.4 | 0.00 | 0.00 | 0.00 | 1016.4 | |
| 20260906005848 | 68 | 15 | 6.1 | 11.3 | 0.00 | 0.00 | 0.00 | 1016.4 | |
| 20260906005420 | 68 | 14 | 6.1 | 11.3 | 0.00 | 0.00 | 0.00 | 1016.3 | |
| 20260906004528 | 68 | 19 | 7.0 | 13.0 | 0.00 | 0.00 | 0.00 | 1016.4 | |
| 20260906003848 | 68 | 24 | 7.8 | 13.0 | 0.00 | 0.00 | 0.00 | 1016.3 | |
| 20260906003422 | 68 | 26 | 7.8 | 13.0 | 0.00 | 0.00 | 0.00 | 1016.3 | |
| 20260906002528 | 68 | 22 | 7.0 | 12.2 | 0.00 | 0.00 | 0.00 | 1016.3 | |
| 20260906001848 | 68 | 22 | 7.0 | 12.2 | 0.00 | 0.00 | 0.00 | 1016.3 | |
| 20260906001208 | 68 | 22 | 6.1 | 13.0 | 0.00 | 0.00 | 0.00 | 1016.3 | |
| 20260906000528 | 68 | 19 | 5.2 | 13.0 | 0.00 | 0.00 | 0.00 | 1016.3 | |
| 20260905235848 | 68 | 21 | 7.0 | 13.9 | 0.00 | 0.00 | 0.00 | 1016.2 | |
| 20260905235208 | 69 | 14 | 7.8 | 13.9 | 0.00 | 0.00 | 0.00 | 1016.4 | |
| 20260905234528 | 69 | 21 | 8.7 | 13.0 | 0.00 | 0.00 | 0.00 | 1016.5 | |
| 20260905234102 | 69 | 19 | 6.1 | 13.0 | 0.00 | 0.00 | 0.00 | 1016.4 | |
| 20260905233208 | 69 | 19 | 8.7 | 13.0 | 0.00 | 0.00 | 0.00 | 1016.4 | |
| 20260905232528 | 70 | 22 | 7.0 | 13.0 | 0.00 | 0.00 | 0.00 | 1016.3 | |
| 20260905231848 | 70 | 21 | 8.7 | 12.2 | 0.00 | 0.00 | 0.00 | 1016.4 | |
| 20260905231208 | 70 | 26 | 6.1 | 11.3 | 0.00 | 0.00 | 0.00 | 1016.4 | |
| 20260905230741 | 70 | 24 | 7.0 | 13.9 | 0.00 | 0.00 | 0.00 | 1016.4 | |
| 20260905225848 | 71 | 18 | 7.8 | 10.4 | 0.00 | 0.00 | 0.00 | 1016.3 | |
| 20260905225208 | 71 | 19 | 4.3 | 11.3 | 0.00 | 0.00 | 0.00 | 1016.4 | |
| 20260905224737 | 70 | 23 | 7.8 | 13.9 | 0.00 | 0.00 | 0.00 | 1016.3 | |
| 20260905223848 | 70 | 21 | 7.8 | 15.6 | 0.00 | 0.00 | 0.00 | 1016.2 | |
| 20260905223208 | 70 | 20 | 7.8 | 15.6 | 0.00 | 0.00 | 0.00 | 1016.3 | |
| 20260905222739 | 70 | 21 | 7.0 | 12.2 | 0.00 | 0.00 | 0.00 | 1016.3 | |
| 20260905221848 | 69 | 20 | 7.8 | 12.2 | 0.00 | 0.00 | 0.00 | 1016.1 | |
| 20260905221208 | 70 | 26 | 7.0 | 12.2 | 0.00 | 0.00 | 0.00 | 1016.2 | |
| 20260905220528 | 70 | 23 | 7.0 | 13.0 | 0.00 | 0.00 | 0.00 | 1016.2 | |
| 20260905215848 | 70 | 21 | 5.2 | 13.0 | 0.00 | 0.00 | 0.00 | 1016.2 | |
| 20260905215417 | 70 | 21 | 7.0 | 12.2 | 0.00 | 0.00 | 0.00 | 1016.3 | |
| 20260905214528 | 70 | 22 | 7.0 | 12.2 | 0.00 | 0.00 | 0.00 | 1016.4 | |
| 20260905213848 | 70 | 18 | 7.8 | 11.3 | 0.00 | 0.00 | 0.00 | 1016.4 | |
| 20260905213208 | 70 | 16 | 7.0 | 11.3 | 0.00 | 0.00 | 0.00 | 1016.3 | |
| 20260905212740 | 70 | 16 | 4.3 | 11.3 | 0.00 | 0.00 | 0.00 | 1016.4 | |
| 20260905211848 | 70 | 12 | 6.1 | 13.0 | 0.00 | 0.00 | 0.00 | 1016.2 | |
| 20260905211208 | 70 | 21 | 7.8 | 13.0 | 0.00 | 0.00 | 0.00 | 1016.3 | |
| 20260905210528 | 70 | 16 | 7.8 | 11.3 | 0.00 | 0.00 | 0.00 | 1016.2 | |
| 20260905205848 | 70 | 12 | 7.0 | 13.0 | 0.00 | 0.00 | 0.00 | 1016.2 | |
| 20260905205208 | 70 | 6 | 7.0 | 13.0 | 0.00 | 0.00 | 0.00 | 1016.3 | |
| 20260905204528 | 69 | 16 | 7.8 | 13.9 | 0.00 | 0.00 | 0.00 | 1016.3 | |
| 20260905203848 | 70 | 18 | 7.8 | 13.9 | 0.00 | 0.00 | 0.00 | 1016.2 | |
| 20260905203208 | 70 | 20 | 7.0 | 13.9 | 0.00 | 0.00 | 0.00 | 1016.3 | |
| 20260905202528 | 70 | 22 | 7.8 | 13.0 | 0.00 | 0.00 | 0.00 | 1016.2 | |
| 20260905201848 | 69 | 27 | 8.7 | 13.0 | 0.00 | 0.00 | 0.00 | 1016.2 | |
| 20260905201207 | 69 | 19 | 7.0 | 11.3 | 0.00 | 0.00 | 0.00 | 1016.2 | |
| 20260905200527 | 69 | 23 | 7.8 | 11.3 | 0.00 | 0.00 | 0.00 | 1016.1 | |
| 20260905195847 | 69 | 25 | 4.3 | 10.4 | 0.00 | 0.00 | 0.00 | 1016.3 | |
| 20260905195207 | 69 | 0 | 6.1 | 10.4 | 0.00 | 0.00 | 0.00 | 1016.2 | |
| 20260905194527 | 69 | 6 | 6.1 | 10.4 | 0.00 | 0.00 | 0.00 | 1016.2 | |
| 20260905193847 | 69 | 5 | 6.1 | 12.2 | 0.00 | 0.00 | 0.00 | 1016.1 | |
| 20260905193207 | 70 | 2 | 5.2 | 12.2 | 0.00 | 0.00 | 0.00 | 1016.2 | |
| 20260905192741 | 70 | 25 | 5.2 | 9.6 | 0.00 | 0.00 | 0.00 | 1016.2 | |
| 20260905191847 | 70 | 40 | 5.2 | 9.6 | 0.00 | 0.00 | 0.00 | 1016.2 | |
| 20260905191417 | 69 | 35 | 5.2 | 9.6 | 0.00 | 0.00 | 0.00 | 1016.3 | |
| 20260905190527 | 70 | 24 | 6.1 | 9.6 | 0.00 | 0.00 | 0.00 | 1016.2 | |
| 20260905185847 | 70 | 24 | 4.3 | 8.7 | 0.00 | 0.00 | 0.00 | 1016.3 | |
| 20260905185206 | 69 | 31 | 4.3 | 10.4 | 0.00 | 0.00 | 0.00 | 1016.3 | |
| 20260905184527 | 69 | 37 | 6.1 | 10.4 | 0.00 | 0.00 | 0.00 | 1016.3 | |
| 20260905183847 | 70 | 28 | 5.2 | 10.4 | 0.00 | 0.00 | 0.00 | 1016.4 | |
| 20260905183207 | 70 | 24 | 7.0 | 11.3 | 0.00 | 0.00 | 0.00 | 1016.3 | |
| 20260905182527 | 70 | 32 | 6.1 | 12.2 | 0.00 | 0.00 | 0.00 | 1016.4 | |
| 20260905181847 | 70 | 20 | 7.8 | 12.2 | 0.00 | 0.00 | 0.00 | 1016.4 | |
| 20260905181418 | 70 | 15 | 6.1 | 12.2 | 0.00 | 0.00 | 0.00 | 1016.5 | |
| 20260905180527 | 69 | 30 | 7.8 | 12.2 | 0.00 | 0.00 | 0.00 | 1016.4 | |
| 20260905175847 | 70 | 17 | 6.1 | 12.2 | 0.00 | 0.00 | 0.00 | 1016.4 | |
| 20260905175207 | 70 | 28 | 5.2 | 12.2 | 0.00 | 0.00 | 0.00 | 1016.2 | |
| 20260905174527 | 69 | 27 | 9.6 | 12.2 | 0.00 | 0.00 | 0.00 | 1016.2 | |
| 20260905173847 | 70 | 22 | 4.3 | 11.3 | 0.00 | 0.00 | 0.00 | 1016.3 | |
| 20260905173207 | 70 | 18 | 6.1 | 11.3 | 0.00 | 0.00 | 0.00 | 1016.2 | |
| 20260905172527 | 69 | 23 | 7.0 | 10.4 | 0.00 | 0.00 | 0.00 | 1016.2 | |
| 20260905172058 | 69 | 24 | 6.1 | 10.4 | 0.00 | 0.00 | 0.00 | 1016.3 | |
| 20260905171207 | 69 | 17 | 7.8 | 10.4 | 0.00 | 0.00 | 0.00 | 1016.2 | |
| 20260905170739 | 69 | 18 | 4.3 | 9.6 | 0.00 | 0.00 | 0.00 | 1016.2 | |
| 20260905165847 | 69 | 15 | 5.2 | 8.7 | 0.00 | 0.00 | 0.00 | 1016.2 | |
| 20260905165207 | 69 | 23 | 6.1 | 8.7 | 0.00 | 0.00 | 0.00 | 1016.1 | |
| 20260905164527 | 70 | 23 | 5.2 | 7.8 | 0.00 | 0.00 | 0.00 | 1016.2 | |
| 20260905164057 | 70 | 17 | 4.3 | 7.0 | 0.00 | 0.00 | 0.00 | 1016.3 |